CST,Max TemperatureF,Mean TemperatureF,Min TemperatureF,Max Dew PointF,MeanDew PointF,Min DewpointF,Max Humidity, Mean Humidity, Min Humidity, Max Sea Level PressureIn, Mean Sea Level PressureIn, Min Sea Level PressureIn, Max VisibilityMiles, Mean VisibilityMiles, Min VisibilityMiles, Max Wind SpeedMPH, Mean Wind SpeedMPH, Max Gust SpeedMPH,PrecipitationIn, CloudCover, Events, WindDirDegrees
2013-11-1,79,68,56,61,57,50,100,69,37,29.98,29.91,29.87,10,4,0,9,2,13,T,3,Fog,14
2013-11-2,72,64,55,61,46,36,93,61,29,30.23,30.12,29.99,10,10,10,22,11,28,0.02,1,Rain,359
2013-11-3,65,55,45,48,44,40,93,68,43,30.28,30.21,30.15,10,10,10,14,5,21,0.00,0,,70
2013-11-4,77,65,52,60,54,48,89,71,53,30.19,30.14,30.11,10,10,2,20,10,24,0.00,0,,105
2013-11-5,81,72,62,68,64,60,100,81,62,30.14,30.09,30.05,10,10,6,23,11,28,0.01,4,Rain,111
2013-11-6,80,69,57,71,67,54,100,84,67,30.21,30.09,30.03,10,9,2,21,8,26,0.30,7,Rain,78
2013-11-7,67,59,50,52,44,38,86,60,34,30.38,30.31,30.19,10,10,10,23,14,29,0.00,3,,12
2013-11-8,65,55,45,48,41,35,93,64,34,30.39,30.31,30.23,10,10,10,20,8,24,0.00,0,,44
2013-11-9,72,60,47,50,45,37,93,61,29,30.27,30.22,30.19,10,10,10,12,5,14,0.00,0,,41
2013-11-10,76,64,51,55,51,47,83,65,46,30.31,30.26,30.22,10,10,10,13,7,17,0.00,1,,42
2013-11-11,76,64,52,55,52,49,93,68,43,30.28,30.23,30.17,10,10,10,9,3,14,0.00,0,,53
2013-11-12,74,58,41,54,47,29,93,70,46,30.57,30.38,30.23,10,10,10,29,13,37,0.00,2,,22
2013-11-13,58,46,34,32,27,21,76,50,24,30.61,30.53,30.45,10,10,10,21,11,28,0.00,0,,30
2013-11-14,62,48,33,48,38,29,89,64,39,30.43,30.28,30.14,10,10,10,8,4,10,0.00,0,,58
2013-11-15,78,65,52,63,57,47,100,75,50,30.12,30.03,29.97,10,6,0,8,4,13,T,4,Fog-Rain,101
2013-11-16,78,70,62,72,68,63,100,87,74,30.01,29.95,29.88,10,6,0,21,11,28,T,8,Fog-Rain,145
2013-11-17,81,77,73,74,73,71,100,90,79,29.98,29.91,29.85,10,9,1,18,8,23,0.02,7,Rain,191
2013-11-18,78,69,60,72,59,38,100,65,29,30.14,30.03,29.95,10,5,0,26,10,32,0.00,6,Fog,31
2013-11-19,67,57,47,41,39,32,68,49,30,30.21,30.12,30.09,10,10,10,20,11,25,0.00,3,,60
2013-11-20,72,57,42,57,46,37,90,63,36,30.12,30.07,30.01,10,10,8,12,6,14,0.00,1,,97
2013-11-21,78,68,58,72,66,57,100,87,74,30.17,30.10,30.05,10,7,0,20,9,23,0.13,7,Fog-Rain,121
2013-11-22,74,67,60,72,67,59,100,92,84,30.22,30.18,30.11,10,6,0,18,8,23,0.04,8,Fog-Rain,81
2013-11-23,60,53,45,59,49,37,100,88,76,30.39,30.29,30.20,10,8,2,25,15,33,0.02,7,Rain,21
2013-11-24,53,47,40,35,28,26,76,56,35,30.45,30.38,30.32,10,10,2,25,15,31,0.00,1,,39
2013-11-25,42,41,39,40,37,30,100,79,57,30.31,30.10,29.96,10,6,2,21,12,25,1.95,8,Rain,25
2013-11-26,43,42,40,40,39,39,93,91,89,30.22,30.04,29.94,10,8,1,20,12,25,0.69,8,Rain,336
2013-11-27,50,41,32,39,32,29,96,71,46,30.46,30.36,30.22,10,10,8,18,8,25,0.00,1,,351
2013-11-28,49,40,30,32,29,26,96,71,46,30.54,30.48,30.42,10,10,10,9,2,10,0.00,0,,78
2013-11-29,59,44,28,35,30,26,100,64,28,30.56,30.49,30.43,10,10,10,10,3,14,0.00,0,,56
2013-11-30,66,49,32,44,38,30,100,69,37,30.46,30.36,30.26,10,9,1,8,2,10,0.00,0,,89